EW2420 Weather Reports


time (UTC)temp
F
wind
direction
speed
knots
gust
knots
rain 1hr
in
rain 24hr
in
rain mn
in
humidity
%
barometer
mb
20260510131520 47 320 7.8 13.0 0.00 0.04 0.04 69 1006.4
20260510130002 46 324 11.3 16.5 0.00 0.04 0.04 71 1006.3
20260510124604 45 355 10.4 13.9 0.00 0.04 0.04 73 1006.0
20260510123042 45 313 7.8 13.9 0.00 0.04 0.04 73 1006.0
20260510121540 44 335 7.8 16.5 0.00 0.04 0.04 75 1005.8
20260510120021 43 326 8.7 13.9 0.00 0.04 0.04 74 1005.7
20260510114520 43 317 11.3 18.2 0.00 0.04 0.04 75 1005.5
20260510113006 42 323 11.3 17.4 0.00 0.04 0.04 76 1005.1
20260510111504 42 317 9.6 13.0 0.00 0.04 0.04 76 1004.9
20260510110003 41 284 7.8 12.2 0.00 0.04 0.04 78 1004.6
20260510104558 41 300 8.7 12.2 0.00 0.04 0.04 78 1004.3
20260510103107 41 311 8.7 13.0 0.00 0.04 0.04 79 1003.9
20260510101605 40 311 7.8 12.2 0.00 0.04 0.04 80 1003.6
20260510100052 40 313 7.0 11.3 0.00 0.04 0.04 79 1003.4
20260510094549 41 326 7.8 13.9 0.00 0.04 0.04 78 1003.3
20260510093028 41 313 6.1 15.6 0.00 0.04 0.04 77 1003.0
20260510091525 42 297 7.0 11.3 0.00 0.04 0.04 75 1002.7
20260510090006 42 323 6.1 10.4 0.00 0.04 0.04 75 1002.6
20260510084503 43 309 7.8 13.0 0.00 0.04 0.04 73 1002.4
20260510083102 43 316 8.7 19.1 0.00 0.04 0.04 72 1002.2
20260510081555 44 302 9.6 19.1 0.00 0.04 0.04 70 1002.2
20260510080044 45 313 13.0 23.5 0.00 0.04 0.04 68 1002.1
20260510074540 46 338 14.8 24.3 0.00 0.04 0.04 64 1001.9
20260510073036 47 327 10.4 17.4 0.00 0.04 0.04 65 1001.7
20260510071533 47 329 9.6 13.0 0.00 0.04 0.04 63 1001.4
20260510070035 47 315 7.0 10.4 0.00 0.04 0.04 65 1001.5
20260510064529 48 282 6.1 10.4 0.00 0.04 0.04 67 1001.2
20260510063028 48 321 4.3 11.3 0.00 0.04 0.04 69 1000.9
20260510061516 48 275 7.0 13.0 0.00 0.04 0.04 69 1001.1
20260510060007 48 309 9.6 13.0 0.00 0.04 0.04 71 1000.9
20260510054559 48 313 7.8 12.2 0.00 0.04 0.04 72 1000.8
20260510053049 48 312 7.8 13.9 0.00 0.04 0.04 71 1000.7
20260510051534 48 298 6.1 12.2 0.00 0.04 0.04 71 1000.6
20260510050028 48 331 7.0 13.0 0.00 0.04 0.04 74 1000.3
20260510044509 48 319 7.8 10.4 0.00 0.04 0.04 76 1000.0
20260510043014 49 309 7.0 11.3 0.00 0.04 0.04 78 999.8
20260510041602 50 336 7.0 10.4 0.00 0.04 0.04 80 999.7
20260510040045 50 296 7.0 12.2 0.00 0.04 0.04 82 999.8
20260510034526 50 304 7.0 13.0 0.00 0.04 0.04 88 999.6
20260510033023 49 319 4.3 7.0 0.00 0.04 0.04 93 999.6
20260510031505 49 324 0.9 6.1 0.00 0.04 0.04 93 999.2
20260510030009 48 323 3.5 5.2 0.00 0.04 0.04 94 999.1
20260510024608 48 309 1.7 7.8 0.00 0.04 0.04 94 998.7
20260510023050 47 304 0.9 3.5 0.00 0.04 0.04 94 998.7
20260510021547 48 287 0.0 4.3 0.00 0.04 0.04 93 998.7
20260510020044 48 234 1.7 6.1 0.00 0.04 0.04 93 998.4
20260510014541 49 229 1.7 6.1 0.00 0.04 0.04 92 998.3
20260510013049 49 301 2.6 7.0 0.00 0.04 0.04 92 998.3
20260510011538 49 292 0.9 9.6 0.00 0.04 0.04 93 998.0
20260510010035 50 252 3.5 8.7 0.00 0.04 0.04 92 997.9
20260510004516 50 223 4.3 13.0 0.00 0.04 0.04 92 997.8
20260510003012 51 270 1.7 10.4 0.00 0.04 0.04 92 997.5
20260510001552 51 233 0.9 9.6 0.01 0.04 0.04 91 996.9
20260510000049 52 213 0.9 7.8 0.04 0.04 0.04 90 996.6
20260509234533 52 203 4.3 8.7 0.04 0.04 0.04 89 996.5
20260509233026 53 282 2.6 7.0 0.04 0.04 0.04 88 996.9
20260509231504 54 313 2.6 5.2 0.01 0.01 0.01 82 997.1
20260509230004 55 219 0.0 4.3 0.00 0.00 0.00 78 996.2
20260509224545 55 191 1.7 6.1 0.00 0.00 0.00 78 996.5
20260509223046 55 171 2.6 6.1 0.00 0.00 0.00 78 996.8
20260509221527 55 182 2.6 7.0 0.00 0.00 0.00 78 997.1
20260509220021 55 150 2.6 7.0 0.00 0.00 0.00 77 997.2
20260509214502 55 133 1.7 7.0 0.00 0.00 0.00 77 997.2
20260509213002 55 200 0.9 6.1 0.00 0.00 0.00 76 997.5
20260509211548 55 167 2.6 7.0 0.00 0.00 0.00 76 997.5
20260509210051 55 155 4.3 11.3 0.00 0.00 0.00 75 997.4
20260509204521 56 222 5.2 13.9 0.00 0.00 0.00 73 997.4
20260509203019 56 157 5.2 10.4 0.00 0.00 0.00 73 997.4
20260509201558 57 176 6.1 13.9 0.00 0.00 0.00 71 997.5
20260509200056 59 164 7.8 13.0 0.00 0.00 0.00 68 997.4
20260509194536 59 213 5.2 11.3 0.00 0.00 0.00 69 997.7
20260509193034 60 189 6.1 13.9 0.00 0.00 0.00 68 998.0
20260509191518 60 192 8.7 16.5 0.00 0.00 0.00 67 998.1
20260509190017 60 163 7.0 13.9 0.00 0.00 0.00 68 998.3
20260509184556 60 202 5.2 10.4 0.00 0.00 0.00 69 998.4
20260509183055 62 205 5.2 10.4 0.00 0.00 0.00 64 998.6
20260509181535 61 212 7.0 12.2 0.00 0.00 0.00 65 998.6
20260509180032 61 200 4.3 11.3 0.00 0.00 0.00 68 998.8
20260509174511 59 227 7.8 15.6 0.00 0.00 0.00 69 999.0
20260509173028 58 180 7.0 13.9 0.00 0.00 0.00 72 999.3
20260509171649 59 130 6.1 18.2 0.00 0.00 0.00 68 999.4
20260509170054 60 153 7.0 13.0 0.00 0.00 0.00 69 999.4
20260509164524 59 199 8.7 13.9 0.00 0.00 0.00 67 999.7
20260509163025 59 217 6.1 15.6 0.00 0.00 0.00 67 999.7
20260509161507 59 165 6.1 13.9 0.00 0.00 0.00 66 999.7
20260509160004 59 124 8.7 13.0 0.00 0.00 0.00 66 999.9
20260509154543 59 209 6.1 15.6 0.00 0.00 0.00 66 1000.2
20260509153042 58 234 7.8 13.0 0.00 0.00 0.00 66 1000.5
20260509151523 58 185 6.1 11.3 0.00 0.00 0.00 67 1000.6
20260509150022 58 151 6.1 13.0 0.00 0.00 0.00 69 1000.7
20260509144502 58 210 6.1 12.2 0.00 0.00 0.00 66 1000.6
20260509143000 57 195 6.1 13.9 0.00 0.00 0.00 69 1001.1
20260509141548 58 194 7.8 13.0 0.00 0.00 0.00 65 1000.9
20260509140040 56 175 7.0 10.4 0.00 0.00 0.00 68 1001.1
20260509134521 56 171 5.2 9.6 0.00 0.00 0.00 71 1001.3
20260509133018 55 217 3.5 9.6 0.00 0.00 0.00 72 1001.2